Weather History for KDYB - November, 2012

Change the Weather History Date:

Wednesday, November 14, 2012

  Actual Average (KCHS) Record (KCHS)
Temperature  
Mean Temperature 50 °F 59 °F  
Max Temperature 51 °F 70 °F 82 °F (1978)
Min Temperature 48 °F 48 °F 27 °F (1977)
Degree Days  
Heating Degree Days 16 7  
Month to date heating degree days 80  
Since 1 July heating degree days 149  
Cooling Degree Days 0 1  
Month to date cooling degree days 19  
Year to date cooling degree days 2283  
Moisture  
Dew Point 44 °F    
Average Humidity 81    
Maximum Humidity 88    
Minimum Humidity 71    
Precipitation  
Precipitation 0.00 in 0.08 in 0.57 in (1957)
Month to date precipitation 1.15  
Year to date precipitation 46.64  
Sea Level Pressure  
Sea Level Pressure 30.32 in    
Wind  
Wind Speed 9 mph (NNE)    
Max Wind Speed 14 mph    
Max Gust Speed 23 mph    
Visibility 10 miles    
Events      
T = Trace of Precipitation, MM = Missing Value Source: NWS Daily Summary

Daily Weather History Graph

Daily Weather History Graph

Search for Another Location

Airport or City:

Trip Planner

Search our weather history database for the weather conditions in past years. The results will help you decide how hot, cold, wet, or windy it might be!

Date:

Astronomy

Nov. 14, 2012 Rise Set
Actual Time 6:51 AM EST 5:19 PM EST
Civil Twilight 6:25 AM EST 5:45 PM EST
Nautical Twilight 5:55 AM EST 6:15 PM EST
Astronomical Twilight 5:25 AM EST 6:44 PM EST
Moon 7:36 AM EST (11/14) 6:09 PM EST (11/14)
Length of Visible Light 11h 20m
Length of Day
10h 28m
New Moon, 1% of the Moon is Illuminated
Nov 14
New Moon
Nov 20
First Quarter
Nov 28
Full
Dec 6
Last Quarter
Dec 13
New

Hourly Weather History & Observations

Time (EST) Temp. Dew Point Humidity Pressure Visibility Wind Dir Wind Speed Gust Speed Precip Events Conditions
12:15 AM 51.8 °F 48.2 °F 88% 30.30 in 10.0 mi NNE 10.4 mph 19.6 mph N/A   Overcast
12:35 AM 51.8 °F 48.2 °F 88% 30.30 in 10.0 mi NNE 13.8 mph 18.4 mph N/A   Overcast
12:55 AM 51.8 °F 48.2 °F 88% 30.30 in 10.0 mi NNE 8.1 mph - N/A   Overcast
1:15 AM 51.8 °F 48.2 °F 88% 30.29 in 10.0 mi NNE 12.7 mph 19.6 mph N/A   Overcast
1:35 AM 51.8 °F 48.2 °F 88% 30.29 in 10.0 mi NNE 9.2 mph 16.1 mph N/A   Overcast
1:55 AM 50.0 °F 46.4 °F 87% 30.30 in 10.0 mi NNE 10.4 mph 23.0 mph N/A   Overcast
2:15 AM 50.0 °F 44.6 °F 82% 30.29 in 10.0 mi NNE 13.8 mph 19.6 mph N/A   Overcast
2:35 AM 50.0 °F 44.6 °F 82% 30.29 in 10.0 mi NNE 8.1 mph 18.4 mph N/A   Overcast
2:55 AM 50.0 °F 44.6 °F 82% 30.30 in 10.0 mi NNE 6.9 mph 16.1 mph N/A   Overcast
3:15 AM 50.0 °F 44.6 °F 82% 30.30 in 10.0 mi NNE 5.8 mph - N/A   Overcast
3:35 AM 50.0 °F 44.6 °F 82% 30.30 in 10.0 mi NNE 8.1 mph - N/A   Overcast
3:55 AM 50.0 °F 44.6 °F 82% 30.30 in 10.0 mi North 13.8 mph 18.4 mph N/A   Overcast
4:15 AM 50.0 °F 44.6 °F 82% 30.30 in 10.0 mi NNE 6.9 mph - N/A   Overcast
4:35 AM 50.0 °F 44.6 °F 82% 30.30 in 10.0 mi NNE 6.9 mph - N/A   Overcast
4:55 AM 50.0 °F 44.6 °F 82% 30.31 in 10.0 mi NNE 8.1 mph - N/A   Overcast
5:15 AM 48.2 °F 44.6 °F 87% 30.32 in 10.0 mi NNE 8.1 mph - N/A   Overcast
5:35 AM 48.2 °F 42.8 °F 82% 30.32 in 10.0 mi NNE 11.5 mph 16.1 mph N/A   Overcast
5:55 AM 48.2 °F 42.8 °F 82% 30.32 in 10.0 mi NNE 10.4 mph 17.3 mph N/A   Overcast
6:15 AM 48.2 °F 42.8 °F 82% 30.33 in 10.0 mi NE 5.8 mph - N/A   Overcast
6:35 AM 48.2 °F 42.8 °F 82% 30.33 in 10.0 mi NNE 6.9 mph 18.4 mph N/A   Overcast
6:55 AM 48.2 °F 42.8 °F 82% 30.33 in 10.0 mi NNE 4.6 mph - N/A   Overcast
7:15 AM 48.2 °F 42.8 °F 82% 30.34 in 10.0 mi NNE 10.4 mph - N/A   Overcast
7:35 AM 48.2 °F 42.8 °F 82% 30.34 in 10.0 mi NNE 10.4 mph 20.7 mph N/A   Overcast
7:55 AM 48.2 °F 42.8 °F 82% 30.35 in 10.0 mi NE 5.8 mph 21.9 mph N/A   Overcast
8:15 AM 48.2 °F 42.8 °F 82% 30.36 in 10.0 mi NNE 11.5 mph 19.6 mph N/A   Overcast
8:35 AM 48.2 °F 42.8 °F 82% 30.37 in 10.0 mi NNE 9.2 mph 19.6 mph N/A   Overcast
8:55 AM 48.2 °F 42.8 °F 82% 30.37 in 10.0 mi NNE 9.2 mph 16.1 mph N/A   Overcast
9:15 AM 50.0 °F 42.8 °F 76% 30.38 in 10.0 mi NNE 10.4 mph 17.3 mph N/A   Overcast
9:35 AM 50.0 °F 44.6 °F 82% 30.38 in 10.0 mi North 9.2 mph 16.1 mph N/A   Overcast
9:55 AM 48.2 °F 44.6 °F 87% 30.38 in 10.0 mi North 10.4 mph - N/A   Overcast
10:15 AM 50.0 °F 44.6 °F 82% 30.38 in 10.0 mi NNE 9.2 mph - N/A   Overcast
10:35 AM 50.0 °F 44.6 °F 82% 30.38 in 10.0 mi NNE 9.2 mph - N/A   Overcast
10:55 AM 50.0 °F 44.6 °F 82% 30.38 in 10.0 mi NNE 9.2 mph - N/A   Overcast
11:15 AM 50.0 °F 44.6 °F 82% 30.37 in 10.0 mi North 9.2 mph - N/A   Overcast
11:35 AM 50.0 °F 44.6 °F 82% 30.37 in 10.0 mi NNE 11.5 mph - N/A   Overcast
11:55 AM 50.0 °F 44.6 °F 82% 30.36 in 10.0 mi North 13.8 mph 17.3 mph N/A   Overcast
12:15 PM 50.0 °F 44.6 °F 82% 30.35 in 10.0 mi North 12.7 mph - N/A   Overcast
12:35 PM 50.0 °F 44.6 °F 82% 30.34 in 10.0 mi North 12.7 mph - N/A   Overcast
12:55 PM 50.0 °F 44.6 °F 82% 30.33 in 10.0 mi NNE 8.1 mph 16.1 mph N/A   Overcast
1:15 PM 51.8 °F 44.6 °F 76% 30.33 in 10.0 mi NNE 11.5 mph - N/A   Overcast
1:35 PM 51.8 °F 44.6 °F 76% 30.33 in 10.0 mi NNE 10.4 mph 16.1 mph N/A   Overcast
1:55 PM 51.8 °F 44.6 °F 76% 30.31 in 10.0 mi NNE 10.4 mph - N/A   Overcast
2:15 PM 51.8 °F 44.6 °F 76% 30.30 in 10.0 mi North 12.7 mph 17.3 mph N/A   Overcast
2:35 PM 51.8 °F 44.6 °F 76% 30.30 in 10.0 mi North 9.2 mph - N/A   Overcast
2:55 PM 51.8 °F 42.8 °F 71% 30.30 in 10.0 mi NNE 8.1 mph - N/A   Overcast
3:15 PM 51.8 °F 44.6 °F 76% 30.30 in 10.0 mi North 8.1 mph - N/A   Overcast
3:35 PM 51.8 °F 42.8 °F 71% 30.30 in 10.0 mi North 6.9 mph - N/A   Overcast
3:55 PM 51.8 °F 42.8 °F 71% 30.30 in 10.0 mi North 9.2 mph - N/A   Overcast
4:15 PM 51.8 °F 44.6 °F 76% 30.30 in 10.0 mi North 9.2 mph - N/A   Overcast
4:35 PM 51.8 °F 44.6 °F 76% 30.30 in 10.0 mi North 9.2 mph - N/A   Overcast
4:55 PM 50.0 °F 44.6 °F 82% 30.29 in 10.0 mi North 6.9 mph - N/A   Overcast
5:15 PM 50.0 °F 44.6 °F 82% 30.29 in 10.0 mi North 6.9 mph - N/A   Overcast
5:35 PM 50.0 °F 44.6 °F 82% 30.29 in 10.0 mi North 5.8 mph - N/A   Overcast
5:55 PM 50.0 °F 44.6 °F 82% 30.30 in 10.0 mi North 6.9 mph - N/A   Overcast
6:15 PM 50.0 °F 44.6 °F 82% 30.29 in 10.0 mi North 6.9 mph - N/A   Overcast
6:35 PM 50.0 °F 44.6 °F 82% 30.29 in 10.0 mi North 6.9 mph - N/A   Overcast
6:55 PM 50.0 °F 44.6 °F 82% 30.29 in 10.0 mi Calm Calm - N/A   Overcast
7:15 PM 50.0 °F 44.6 °F 82% 30.29 in 10.0 mi Calm Calm - N/A   Overcast
7:35 PM 50.0 °F 44.6 °F 82% 30.30 in 10.0 mi North 4.6 mph - N/A   Overcast
7:55 PM 50.0 °F 44.6 °F 82% 30.30 in 10.0 mi North 6.9 mph - N/A   Overcast
8:15 PM 51.8 °F 44.6 °F 76% 30.31 in 10.0 mi Calm Calm - N/A   Overcast
8:35 PM 51.8 °F 44.6 °F 76% 30.31 in 10.0 mi NE 4.6 mph - N/A   Overcast
8:55 PM 51.8 °F 44.6 °F 76% 30.31 in 10.0 mi NNE 8.1 mph - N/A   Overcast
9:35 PM 51.8 °F 44.6 °F 76% 30.31 in 10.0 mi NNE 9.2 mph - N/A   Overcast
9:55 PM 51.8 °F 44.6 °F 76% 30.30 in 10.0 mi NNE 5.8 mph - N/A   Overcast
10:15 PM 51.8 °F 44.6 °F 76% 30.29 in 10.0 mi NNE 6.9 mph - N/A   Overcast
10:35 PM 51.8 °F 44.6 °F 76% 30.28 in 10.0 mi NNE 6.9 mph - N/A   Overcast
10:55 PM 51.8 °F 44.6 °F 76% 30.28 in 10.0 mi NNE 10.4 mph - N/A   Overcast
11:15 PM 51.8 °F 44.6 °F 76% 30.28 in 10.0 mi NNE 6.9 mph - N/A   Overcast
11:35 PM 51.8 °F 44.6 °F 76% 30.27 in 10.0 mi NE 6.9 mph - N/A   Overcast
11:55 PM 50.0 °F 44.6 °F 82% 30.26 in 10.0 mi NE 6.9 mph - N/A   Overcast